Regional Weather Roundup
Issued by NWS Raleigh/Durham, NC

Home | Current Version | Previous Version | Text Only | Print | Product List | Glossary On
Versions: 1 2 3 4 5 6 7 8 9 10 11 12 13 14 15 16 17 18 19 20 21 22 23 24 25 26 27 28
000
ASUS42 KRAH 171610
RWRRAH
NORTH CAROLINA WEATHER ROUNDUP
NATIONAL WEATHER SERVICE RALEIGH NC
1200 PM EDT THU APR 17 2014

NOTE: "FAIR" INDICATES FEW OR NO CLOUDS BELOW 12,000 FEET WITH NO
SIGNIFICANT WEATHER AND/OR OBSTRUCTIONS TO VISIBILITY.

NCZ001-053-055-056-065-067-171700-
WESTERN NORTH CAROLINA

CITY           SKY/WX    TMP DP  RH WIND       PRES   REMARKS
ASHEVILLE      MOSUNNY   49  32  52 S12       30.47F
JEFFERSON      SUNNY     43  21  42 E3        30.47S
MORGANTON      SUNNY     52  24  33 N5        30.56F
HICKORY        SUNNY     50  24  36 VRB7G16   30.52F
RUTHERFORDTON  MOSUNNY   51  28  41 SE3       30.53S
MOUNT AIRY     SUNNY     51  24  35 E12       30.53F
BOONE          SUNNY     44  24  46 E7        30.47F
$$

NCZ021-022-025-041-071-084-088-171700-
CENTRAL NORTH CAROLINA

CITY           SKY/WX    TMP DP  RH WIND       PRES   REMARKS
CHARLOTTE      PTSUNNY   54  29  38 NE12G20   30.53F
GREENSBORO     CLOUDY    50  27  40 NE7       30.54F
WINSTON-SALEM  SUNNY     48  26  42 E10G17    30.55F
RALEIGH-DURHAM PTSUNNY   53  28  38 NE12G17   30.55F
FORT BRAGG     MOSUNNY   56  37  49 NE10      30.52F
FAYETTEVILLE   MOSUNNY   56  36  47 NE9       30.51F
CHAPEL HILL    MOSUNNY   53  27  36 E10       30.55F
BURLINGTON     MOSUNNY   52  25  35 NE7       30.55F
LAURINBURG     SUNNY     55  35  47 NE15      30.52S
$$

NCZ011-015-027-028-043-044-047-080-103-171700-
NORTHEASTERN NORTH CAROLINA

CITY           SKY/WX    TMP DP  RH WIND       PRES   REMARKS
GREENVILLE     MOSUNNY   55  41  58 NE8G18    30.53F
WASHINGTON     SUNNY     58  45  60 N14G20    30.53F
ELIZABETH CITY MOSUNNY   54  40  59 N18       30.56S
MANTEO         CLOUDY    51  41  67 NE20G29   30.53S
CAPE HATTERAS  CLOUDY    55  45  68 NE13G28   30.48S
$$

NCZ078-087-090-091-093-098-101-171700-
SOUTHEASTERN NORTH CAROLINA

CITY           SKY/WX    TMP DP  RH WIND       PRES   REMARKS
LUMBERTON      SUNNY     57  40  52 N13       30.50S
GOLDSBORO      MOSUNNY   56  41  56 NE10      30.51S
KINSTON        MOSUNNY   57  41  54 NE12      30.53S
KENANSVILLE    MOSUNNY   55  40  56 NE3       30.53S
NEW BERN       SUNNY     61  45  55 N13       30.51F
CHERRY POINT   PTSUNNY   61  44  53 NE18      30.50F
BEAUFORT       MOSUNNY   60  46  59 NE15G29   30.48S
JACKSONVILLE   MOSUNNY   59  43  55 NE7       30.49S
WILMINGTON     PTSUNNY   62  42  47 N14       30.48S
$$




USA.gov is the U.S. government's official web portal to all federal, state and local government web resources and services.